Regional Weather Roundup
Issued by NWS

Home | Current Version | Previous Version | Text Only | Print | Product List | Glossary On
Versions: 1 2 3 4 5 6 7 8 9 10 11 12 13 14 15 16 17 18 19 20 21 22 23 24 25 26 27 28 29 30 31 32 33 34 35 36 37 38 39 40 41 42 43 44 45 46 47 48 49 50
129
ASUS44 KJAN 160003
RWRMS

MISSISSIPPI HOURLY WEATHER ROUNDUP
NATIONAL WEATHER SERVICE JACKSON MS
700 PM CDT MON SEP 15 2014

NOTE: "FAIR: INDICATES FEW OR NO CLOUDS BELOW 12,000 FEET WITH NO
SIGNIFICANT WEATHER AND/OR OBSTRUCTIONS TO VISIBILITY.

MSZ001>002-007>008-010>013-018>021-025>028-034>036-160100-
NORTHWEST MISSISSIPPI

CITY           SKY/WX    TMP DP  RH WIND       PRES   REMARKS
CLARKSDALE     FAIR      77  66  69 CALM      30.10S
CLEVELAND      FAIR      79  68  69 N5        30.09R
GREENWOOD      MOCLDY    77  70  79 CALM      30.09R
6HR MIN TEMP:  77; 6HR MAX TEMP:  87;

GREENVILLE     CLOUDY    79  66  64 NW3       30.09R
6HR MIN TEMP:  79; 6HR MAX TEMP:  86;

GRENADA        FAIR      73  70  88 CALM      30.09F
OLIVE BRANCH   MOCLDY    73  72  94 CALM      30.10S
OXFORD         FAIR      73  68  83 CALM      30.12S
TUNICA         CLOUDY    77  64  65 NW3       30.11R
$$

MSZ003>006-009-014>017-022>024-029>033-037>039-160100-
NORTHEAST MISSISSIPPI

CITY           SKY/WX    TMP DP  RH WIND       PRES   REMARKS
COLUMBUS AFB   CLOUDY    81  69  67 N5        30.09R
6HR MIN TEMP:  81; 6HR MAX TEMP:  89;

CORINTH        FAIR      77  68  73 CALM      30.09S
GOLDN TRIANGLE PTCLDY    82  70  65 N3        30.10R
STARKVILLE     FAIR      81  70  69 CALM      30.09R
TUPELO         CLOUDY    81  67  62 NW3       30.09S
6HR MIN TEMP:  81; 6HR MAX TEMP:  86;

$$

MSZ040-058-160100-
CENTRAL MISSISSIPPI

CITY           SKY/WX    TMP DP  RH WIND       PRES   REMARKS
JACKSON INTL   PTCLDY    84  71  65 N7        30.08R
6HR MIN TEMP:  84; 6HR MAX TEMP:  91;

JACKSON HAWKNS PTCLDY    85  71  63 VRB5      30.08R HX  90
6HR MIN TEMP:  85; 6HR MAX TEMP:  90;

MERIDIAN KEY   CLOUDY    83  73  72 E5        30.07R
6HR MIN TEMP:  83; 6HR MAX TEMP:  91;

MERIDIAN NAS   CLOUDY    79  73  82 CALM      30.08R
6HR MIN TEMP:  79; 6HR MAX TEMP:  93;

RAYMOND        FAIR      84  77  79 NE3       30.08R HX  94
VICKSBURG      MOCLDY    81  71  71 N3        30.07S
6HR MIN TEMP:  81; 6HR MAX TEMP:  91;

$$

MSZ059>079-160100-
SOUTH MISSISSIPPI

CITY           SKY/WX    TMP DP  RH WIND       PRES   REMARKS
BROOKHAVEN     FAIR      82  75  78 CALM      30.09S
HATTIESBURG    CLOUDY    84  72  67 SE7       30.07R
6HR MIN TEMP:  84; 6HR MAX TEMP:  92; 6HR PCP: TRACE;

MCCOMB         MOCLDY    87  71  58 NE3       30.07R HX  93
6HR MIN TEMP:  87; 6HR MAX TEMP:  93;

NATCHEZ        MOCLDY    82  73  74 NE3       30.08R
6HR MIN TEMP:  82; 6HR MAX TEMP:  90;

PINE BELT      PTCLDY   N/A N/A N/A NE3       30.08S
$$

MSZ080>082-160100-
COASTAL MISSISSIPPI

CITY           SKY/WX    TMP DP  RH WIND       PRES   REMARKS
BAY ST LOUIS   PTCLDY    82  73  74 CALM      30.05S
BILOXI         MOCLDY    84  75  73 S6        30.05S HX  92
6HR MIN TEMP:  84; 6HR MAX TEMP:  90; 6HR PCP: TRACE;

PASCAGOULA     MOCLDY    81  76  84 CALM      30.05S
6HR MIN TEMP:  78; 6HR MAX TEMP:  86; 6HR PCP:  0.03;

GULFPORT       MOCLDY    84  75  74 S6        30.04S HX  92
6HR MIN TEMP:  84; 6HR MAX TEMP:  90;

$$



USA.gov is the U.S. government's official web portal to all federal, state and local government web resources and services.